Terminal Aerodrome Forecast
Issued by NWS

Home | Current Version | Previous Version | Graphics & Text | Print | Product List | Glossary On
Versions: 1 2 3 4 5 6 7 8 9 10 11 12 13 14 15 16 17 18
000
FTUS43 KABR 260900 AAB
TAFATY
TAF AMD
KATY 260930Z 2610/2706 20005KT P6SM VCTS SCT070CB BKN150
      TEMPO 2610/2613 5SM -SHRA BR BKN070
     FM261400 24010KT P6SM BKN150
     FM261800 28017G25KT P6SM FEW050
     FM270200 30010KT P6SM SKC=

USA.gov is the U.S. government's official web portal to all federal, state and local government web resources and services.